Regional Weather Roundup
Issued by NWS Memphis, TN

Home | Current Version | Previous Version | Text Only | Print | Product List | Glossary On
Versions: 1 2 3 4 5 6 7 8 9 10 11 12 13 14 15 16 17 18 19 20 21 22 23 24 25 26 27 28 29 30 31 32 33 34 35 36 37 38 39 40 41 42 43 44 45 46 47 48 49 50
000
ASUS44 KMEG 040700
RWRMEG
MEMPHIS CWA HOURLY WEATHER ROUNDUP
NATIONAL WEATHER SERVICE MEMPHIS TN
200 AM CDT SAT JUL 04 2015

...WEST TENNESSEE...

CITY           SKY/WX    TMP DP  RH WIND       PRES   REMARKS
MEMPHIS INTL   CLOUDY    73  70  90 SW6       29.91F
NWS MEMPHIS      N/A     73 N/A N/A MISG        N/A
JACKSON        PTCLDY    71  69  93 SW5       29.92R
LEXINGTON      CLOUDY    72  70  94 SW3       29.91S
DYERSBURG        N/A    N/A N/A N/A MISG        N/A
PARIS          CLOUDY    66  66 100 CALM      29.92R VSB 3/4


...EASTERN ARKANSAS...

CITY           SKY/WX    TMP DP  RH WIND       PRES   REMARKS
JONESBORO      PTCLDY    70  69  97 SW3       29.89F
WEST MEMPHIS   CLOUDY    72  72 100 S8        29.89F
BATESVILLE     CLOUDY    68  66  94 CALM      29.90F VSB 1/2
WALNUT RIDGE   CLOUDY    72  70  94 NW5       29.90S VSB 3/4
BLYTHEVILLE    CLOUDY    74  73  97 CALM      29.90F
SEARCY         MOCLDY    70  69  97 CALM      29.91F
STUTTGART      CLOUDY    72  66  83 CALM      29.89S
PINE BLUFF     LGT RAIN  73  71  93 SW8       29.92R
MONTICELLO     MOCLDY    78  75  90 SW7       29.91S THUNDER


...NORTH MISSISSIPPI...

CITY           SKY/WX    TMP DP  RH WIND       PRES   REMARKS
TUPELO         TSTM      70  67  90 S6        29.95S
TUNICA         HVY RAIN  70  68  94 CALM      29.92F
CLARKSDALE     CLOUDY    72  72 100 SE7       29.91F
GREENWOOD      TSTM      72  68  87 SW7       29.91F
STARKVILLE     FAIR      68  66  94 CALM      29.94F
GOLDEN TRIANGL CLOUDY    70  66  88 S13G18    29.95F


...SOUTHEAST MISSOURI...

CITY           SKY/WX    TMP DP  RH WIND       PRES   REMARKS
WEST PLAINS    PTCLDY    67  64  90 N3        29.97R
POPLAR BLUFF   PTCLDY    70  69  97 N3        29.90F
CAPE GIRARDEAU MOCLDY    68  68 100 W3        29.91S


...NORTHWEST ALABAMA...

CITY           SKY/WX    TMP DP  RH WIND       PRES   REMARKS
MUSCLE SHOALS  CLOUDY    70  66  87 SW5       29.97S


...MIDDLE TENNESSEE...

CITY           SKY/WX    TMP DP  RH WIND       PRES   REMARKS
NASHVILLE      MOCLDY    70  69  97 S3        29.92F
CLARKSVILLE    CLOUDY    71  69  93 CALM      29.91S


...WESTERN KENTUCKY...

CITY           SKY/WX    TMP DP  RH WIND       PRES   REMARKS
PADUCAH        MOCLDY    69  67  93 CALM      29.90S
FORT CAMPBELL  CLOUDY    70  69  96 SW5       29.90F


...CENTRAL ARKANSAS...

CITY           SKY/WX    TMP DP  RH WIND       PRES   REMARKS
LITTLE ROCK    CLOUDY    70  66  87 N5        29.90F


SKY/WX REPORTED AS FAIR MEANS FEW OR NO CLOUDS BELOW
12 THOUSAND FEET.



USA.gov is the U.S. government's official web portal to all federal, state and local government web resources and services.